{"data":{"norad_id":55752,"epoch":"2026-09-20T22:00:03.000096Z","epoch_age_seconds":66990,"freshness":"FRESH","line1":"1 55752U 23028M   26263.91670139  .00082305  00000+0  62410-2 0  9996","line2":"2 55752  70.0009 112.0738 0003283 291.6637 189.7913 15.01762577  5761","mean_motion":15.01762577,"eccentricity":0.0003283,"inclination_deg":70.0009,"raan_deg":112.0738,"arg_perigee_deg":291.6637,"mean_anomaly_deg":189.7913,"bstar":0.006241,"rev_number":576,"period_min":95.887327468009,"perigee_km":559.18288362845,"apogee_km":563.73942377617,"semimajor_km":6939.5981537023,"source":"CELESTRAK","updated_at":"2026-09-21T09:00:33.313356Z"}}